Location: Franzen
(48.6167°N, 15.3833°E)
Time: 09:02:32
(UTC+00:00)

Cosmos 192 - Pass Details

Date: 22 April 2021
Orbit: 701 x 713 km, 74.0° (Epoch: 16 May)

Event Time Altitude Azimuth Distance (km) Brightness Sun altitude
Rises 18:43:08 0° 337° (NNW) 3,127 8.6 -7.3°
Reaches altitude 10° 18:45:29 10° 340° (NNW) 2,203 7.7 -7.6°
Maximum altitude 18:50:28 76° 66° (ENE) 740 4.4 -8.3°
Drops below altitude 10° 18:55:24 10° 152° (SSE) 2,181 6.3 -9.0°
Enters shadow 18:56:02 - 153° (SSE) 2,431 6.6 -9.1°
